Location: *
(51.0333°S, 178.4667°E)
Time: 07:20:42
(UTC+00:00)

STARLINK-54 - Pass Details

Date: 15 November 2019
Orbit: 528 x 530 km, 53.0° (Epoch: 09 December)

Event Time Altitude Azimuth Distance (km) Brightness Sun altitude
Rises 10:56:15 0° 253° (WSW) 2,692 7.6 -19.5°
Reaches altitude 10° 10:58:29 10° 253° (WSW) 1,800 6.6 -19.6°
Maximum altitude 11:02:35 87° 341° (NNW) 545 3.4 -19.7°
Enters shadow 11:03:55 41° 67° (ENE) 783 4.1 -19.7°
